TimeEST,TemperatureF,Dew PointF,Humidity,Sea Level PressureIn,VisibilityMPH,Wind Direction,Wind SpeedMPH,Gust SpeedMPH,PrecipitationIn,Events,Conditions,WindDirDegrees,DateUTC
12:53 AM,77.0,69.1,76,30.16,10.0,ESE,9.2,-,N/A,,Overcast,110,2013-01-09 05:53:00
1:53 AM,77.0,71.1,82,30.16,10.0,ESE,11.5,-,N/A,,Overcast,120,2013-01-09 06:53:00
2:28 AM,75.2,71.6,89,30.16,10.0,ESE,11.5,-,N/A,,Mostly Cloudy,110,2013-01-09 07:28:00
2:42 AM,75.2,71.6,89,30.17,10.0,ESE,11.5,-,N/A,,Scattered Clouds,120,2013-01-09 07:42:00
2:53 AM,75.0,71.1,87,30.17,10.0,ESE,11.5,-,N/A,,Partly Cloudy,110,2013-01-09 07:53:00
3:32 AM,75.2,69.8,83,30.17,10.0,ESE,11.5,-,N/A,,Mostly Cloudy,110,2013-01-09 08:32:00
3:39 AM,75.2,69.8,83,30.18,10.0,ESE,10.4,-,N/A,,Partly Cloudy,110,2013-01-09 08:39:00
3:53 AM,73.9,70.0,87,30.18,10.0,East,8.1,-,N/A,,Scattered Clouds,100,2013-01-09 08:53:00
4:53 AM,75.0,70.0,84,30.19,10.0,ESE,9.2,-,N/A,,Mostly Cloudy,110,2013-01-09 09:53:00
5:53 AM,75.0,69.1,82,30.19,10.0,ESE,11.5,-,N/A,,Mostly Cloudy,110,2013-01-09 10:53:00
6:53 AM,73.9,69.1,85,30.21,10.0,ESE,9.2,-,N/A,,Partly Cloudy,120,2013-01-09 11:53:00
7:53 AM,75.9,70.0,82,30.23,10.0,ESE,10.4,-,N/A,,Partly Cloudy,120,2013-01-09 12:53:00
8:53 AM,78.1,71.1,79,30.25,10.0,ESE,17.3,-,N/A,,Scattered Clouds,110,2013-01-09 13:53:00
9:40 AM,78.8,71.6,78,30.26,10.0,ESE,13.8,24.2,N/A,,Mostly Cloudy,110,2013-01-09 14:40:00
9:53 AM,80.1,71.1,74,30.26,10.0,ESE,21.9,28.8,N/A,,Mostly Cloudy,120,2013-01-09 14:53:00
10:08 AM,80.6,71.6,74,30.26,10.0,ESE,17.3,24.2,N/A,,Scattered Clouds,120,2013-01-09 15:08:00
10:53 AM,81.0,71.1,72,30.25,10.0,ESE,19.6,25.3,N/A,,Mostly Cloudy,110,2013-01-09 15:53:00
11:53 AM,82.0,71.1,69,30.23,10.0,ESE,21.9,28.8,N/A,,Mostly Cloudy,110,2013-01-09 16:53:00
12:53 PM,81.0,70.0,69,30.21,10.0,ESE,18.4,27.6,N/A,,Mostly Cloudy,110,2013-01-09 17:53:00
1:53 PM,81.0,70.0,69,30.20,10.0,ESE,18.4,25.3,N/A,,Mostly Cloudy,110,2013-01-09 18:53:00
2:07 PM,80.6,69.8,70,30.20,10.0,ESE,19.6,24.2,N/A,,Scattered Clouds,110,2013-01-09 19:07:00
2:26 PM,80.6,69.8,70,30.19,10.0,ESE,18.4,24.2,N/A,,Mostly Cloudy,120,2013-01-09 19:26:00
2:53 PM,81.0,70.0,69,30.19,10.0,ESE,16.1,-,N/A,,Mostly Cloudy,110,2013-01-09 19:53:00
3:49 PM,78.8,69.8,74,30.20,10.0,ESE,15.0,-,N/A,,Scattered Clouds,110,2013-01-09 20:49:00
3:53 PM,79.0,70.0,74,30.20,10.0,ESE,13.8,-,N/A,,Mostly Cloudy,110,2013-01-09 20:53:00
4:53 PM,78.1,70.0,76,30.21,10.0,ESE,15.0,-,N/A,,Overcast,110,2013-01-09 21:53:00
5:40 PM,77.0,71.6,83,30.22,10.0,East,11.5,20.7,N/A,,Mostly Cloudy,90,2013-01-09 22:40:00
5:53 PM,75.9,71.1,85,30.22,10.0,East,11.5,-,N/A,,Mostly Cloudy,90,2013-01-09 22:53:00
6:53 PM,75.9,71.1,85,30.24,10.0,East,11.5,-,N/A,,Mostly Cloudy,90,2013-01-09 23:53:00
7:53 PM,75.0,71.1,87,30.24,10.0,East,12.7,-,N/A,,Clear,90,2013-01-10 00:53:00
8:53 PM,75.0,71.1,87,30.25,10.0,East,13.8,-,N/A,,Clear,100,2013-01-10 01:53:00
9:26 PM,75.2,71.6,89,30.26,10.0,East,11.5,-,N/A,,Mostly Cloudy,100,2013-01-10 02:26:00
9:44 PM,75.2,71.6,89,30.27,10.0,East,10.4,25.3,N/A,,Mostly Cloudy,100,2013-01-10 02:44:00
9:53 PM,75.9,71.1,85,30.27,10.0,East,12.7,-,N/A,,Mostly Cloudy,100,2013-01-10 02:53:00
10:53 PM,75.9,69.1,79,30.27,10.0,East,13.8,-,N/A,,Clear,100,2013-01-10 03:53:00
11:53 PM,75.9,69.1,79,30.27,10.0,ESE,12.7,-,N/A,,Scattered Clouds,110,2013-01-10 04:53:00